[[{"header":{"parameterUnit":"m.s-1","parameterCategory":1,"la1":30.2991,"la2":30.254,"lo1":-89.0895,"lo2":-89.0444,"dx":0.0017,"dy":0.0017,"nx":28,"ny":28,"refTime":"2022-12-03T09:00:00:Z","depth":0,"parameterNumber":2,"parameterNumberName":"U-component_of_WINDS"},"data":[0,0,0,0,0,0,0,0,0,0,0,0,0,0,0,0,0,0,0,0,0,0,0,0,0,0,0,0,0,0,0,0,0,0,0,0,0,0,0,0,0,0,0,0,0,0,0,0,0,0,0,0,0,0,0,0,0,0,-0.2431,-0.2431,0,-0.2433,-0.2433,-0.2433,-0.2426,-0.2426,-0.2426,-0.2426,-0.2426,-0.2427,-0.2427,0,0,0,0,0,0,0,0,0,0,0,0,0,-0.2422,-0.2422,-0.2431,-0.2431,-0.2431,-0.2433,-0.2433,-0.2433,-0.2426,-0.2426,-0.2426,-0.2426,-0.2426,-0.2426,-0.2427,0,0,0,0,0,0,0,0,0,0,0,0,0,-0.2425,-0.2422,-0.2431,-0.2428,-0.2428,-0.2433,-0.2433,-0.2433,-0.2426,-0.2426,-0.2426,-0.2425,-0.2426,-0.2426,-0.2427,-0.2435,0,0,-0.2428,-0.2428,0,0,0,0,0,0,0,0,-0.2425,-0.2425,-0.2429,-0.2428,-0.2428,-0.2429,-0.243,-0.2434,-0.2426,-0.2427,-0.2426,-0.2425,-0.2427,-0.2428,-0.2429,-0.2435,-0.2435,-0.2428,-0.2428,-0.2428,-0.2428,0,0,0,0,0,0,0,-0.2425,-0.2425,-0.2432,-0.2429,-0.2428,-0.2427,-0.2427,-0.2431,-0.2429,-0.2427,-0.2426,-0.2427,-0.2427,-0.2428,-0.2429,-0.2435,-0.2428,-0.2428,-0.2428,-0.2428,-0.2449,-0.2449,0,0,0,0,0,0,-0.2425,-0.2425,-0.2432,-0.2432,-0.2426,-0.2427,-0.2427,-0.2429,-0.2429,-0.2428,-0.2427,-0.2426,-0.2428,-0.2428,-0.2429,-0.2438,-0.2428,-0.2428,-0.2429,-0.2448,-0.2449,-0.2449,0,0,0,0,0,0,-0.2425,-0.2426,-0.2432,-0.2429,-0.2429,-0.2428,-0.243,-0.2429,-0.243,-0.2429,-0.2428,-0.2428,-0.2428,-0.2428,-0.2434,-0.2438,-0.2428,-0.2429,-0.2448,-0.2449,-0.2449,-0.2458,0,0,0,0,0,0,-0.2425,-0.2426,-0.2429,-0.2429,-0.2429,-0.2437,-0.243,-0.243,-0.2431,-0.243,-0.243,-0.243,-0.2427,-0.2433,-0.2434,-0.2439,-0.2429,-0.2448,-0.2448,-0.2449,-0.2457,-0.2459,-0.246,0,0,0,0,0,-0.2424,-0.2431,-0.2429,-0.243,-0.2433,-0.2437,-0.2438,-0.2435,-0.2431,-0.2435,-0.2434,-0.243,-0.2438,-0.2434,-0.2435,-0.2439,-0.2447,-0.2448,-0.2449,-0.2456,-0.2458,-0.246,0,0,0,0,0,0,-0.243,-0.243,-0.2428,-0.2435,-0.2436,-0.2436,-0.244,-0.2437,-0.2439,-0.2438,-0.2435,-0.2435,-0.2441,-0.2441,-0.2436,-0.2448,-0.2442,-0.2443,-0.2447,-0.2449,-0.2451,-0.245,-0.2429,0,0,0,0,0,-0.2433,-0.2436,-0.2436,-0.2442,-0.2443,-0.2441,-0.2443,-0.2441,-0.2442,-0.2442,-0.2442,-0.2443,-0.2446,-0.2447,-0.245,-0.2457,-0.2457,-0.2461,-0.2463,-0.2464,-0.2464,-0.2469,-0.2471,-0.2452,-0.2452,-0.2452,0,0,-0.2437,-0.2437,-0.244,-0.2443,-0.2444,-0.2448,-0.2442,-0.2445,-0.2448,-0.2443,-0.2448,-0.2448,-0.2449,-0.2456,-0.2458,-0.2456,-0.247,-0.2465,-0.2466,-0.2466,-0.247,-0.2472,-0.2473,-0.2452,-0.2452,-0.2452,0,0,-0.2447,-0.2448,-0.2453,-0.2454,-0.2456,-0.2455,-0.2456,-0.2457,-0.2457,-0.2462,-0.2458,-0.2462,-0.2466,-0.2467,-0.2468,-0.248,-0.2477,-0.2481,-0.2488,-0.2493,-0.2494,-0.2496,-0.25,-0.2502,-0.2482,-0.2482,-0.2482,0,-0.2452,-0.2458,-0.2456,-0.246,-0.2462,-0.2458,-0.2464,-0.2465,-0.2467,-0.2468,-0.2465,-0.2472,-0.2472,-0.2479,-0.2482,-0.2483,-0.2485,-0.2481,-0.2494,-0.2496,-0.2497,-0.2501,-0.2503,-0.2483,-0.2483,-0.2483,-0.2482,0,-0.2464,-0.2468,-0.2472,-0.2475,-0.2477,-0.2482,-0.2481,-0.2484,-0.2482,-0.2482,-0.2488,-0.2488,-0.2491,-0.2493,-0.2491,-0.25,-0.2498,-0.2495,-0.2489,-0.2499,-0.2503,-0.2505,-0.2483,-0.2483,-0.2483,-0.2483,0,0,-0.2477,-0.248,-0.2481,-0.2483,-0.2485,-0.2488,-0.2493,-0.2496,-0.2499,-0.2501,-0.2505,-0.251,-0.2507,-0.2508,-0.2507,-0.2511,-0.2521,-0.2507,-0.2507,-0.2509,-0.2531,-0.2534,-0.2536,-0.2519,-0.2519,-0.2519,-0.2531,0,-0.2487,-0.2496,-0.2495,-0.2503,-0.2507,-0.2504,-0.2509,-0.2511,-0.2511,-0.2514,-0.2514,-0.2518,-0.2514,-0.2515,-0.2519,-0.2519,-0.2525,-0.2518,-0.2523,-0.2523,-0.2522,-0.2538,-0.254,-0.2551,-0.2533,-0.2533,-0.2533,0,-0.2499,-0.2502,-0.2511,-0.2514,-0.2515,-0.252,-0.2523,-0.2526,-0.2529,-0.2529,-0.2531,-0.2529,-0.2534,-0.2529,-0.2536,-0.2532,-0.2534,-0.2534,-0.2535,-0.2535,-0.2528,-0.2538,-0.2555,-0.2556,-0.2536,-0.2535,-0.2535,0,-0.2508,-0.2514,-0.2521,-0.2522,-0.2525,-0.2528,-0.2529,-0.2532,-0.2534,-0.2537,-0.2539,-0.2542,-0.2544,-0.2547,-0.2546,-0.2542,-0.2554,-0.2548,-0.2554,-0.2554,-0.2556,-0.2556,-0.2573,-0.2558,-0.2558,-0.2558,-0.2558,0,-0.2519,-0.2525,-0.2525,-0.2529,-0.2536,-0.2535,-0.2541,-0.2542,-0.2544,-0.2548,-0.2546,-0.255,-0.2549,-0.2553,-0.2552,-0.2559,-0.256,-0.256,-0.2559,-0.256,-0.256,-0.2561,-0.256,-0.2558,-0.2558,-0.2558,-0.2558,0,-0.253,-0.253,-0.2537,-0.2539,-0.254,-0.2545,-0.2547,-0.2551,-0.2551,-0.2557,-0.2558,-0.2559,-0.2563,-0.2563,-0.2568,-0.2568,-0.2576,-0.2575,-0.2575,-0.2575,-0.2581,-0.258,-0.2599,-0.2602,-0.2585,-0.2585,-0.2585,0,-0.2536,-0.2541,-0.2544,-0.2547,-0.2549,-0.2553,-0.2556,-0.2556,-0.2559,-0.2562,-0.2566,-0.257,-0.2574,-0.2582,-0.2583,-0.2587,-0.2586,-0.2592,-0.2586,-0.2587,-0.2586,-0.2586,-0.2586,-0.2593,-0.2593,-0.2593,-0.2594,0,-0.2549,-0.2549,-0.2553,-0.2558,-0.2561,-0.2565,-0.2568,-0.257,-0.257,-0.2574,-0.2579,-0.2582,-0.2588,-0.2592,-0.2597,-0.2598,-0.2596,-0.2596,-0.2597,-0.2597,-0.2598,-0.2598,-0.2578,-0.2595,-0.2595,-0.2595,-0.2595,-0.2595,-0.2558,-0.2562,-0.2565,-0.257,-0.2573,-0.2576,-0.258,-0.2581,-0.2586,-0.259,-0.259,-0.2596,-0.2599,-0.2604,-0.2606,-0.2611,-0.2609,-0.2611,-0.2611,-0.2612,-0.2613,-0.2597,-0.2612,-0.2612,-0.2612,-0.2612,-0.2612,0,-0.257,-0.2573,-0.2577,-0.2582,-0.2586,-0.2584,-0.2588,-0.2591,-0.2597,-0.26,-0.2604,-0.261,-0.2615,-0.2617,-0.2621,-0.2625,-0.2624,-0.2626,-0.2626,-0.2626,-0.2614,-0.2612,-0.2627,-0.2627,-0.2627,-0.2627,-0.2627,-0.2627,-0.2577,-0.2584,-0.2585,-0.2594,-0.2596,-0.2602,-0.2604,-0.2607,-0.261,-0.2617,-0.2621,-0.2622,-0.2625,-0.263,-0.2635,-0.2635,-0.2637,-0.264,-0.264,-0.2628,-0.2627,-0.2625,-0.2624,-0.264,-0.264,-0.2651,-0.2651,-0.2651]},{"header":{"parameterUnit":"m.s-1","parameterCategory":1,"la1":30.2991,"la2":30.254,"lo1":-89.0895,"lo2":-89.0444,"dx":0.0017,"dy":0.0017,"nx":28,"ny":28,"refTime":"2022-12-03T09:00:00:Z","depth":0,"parameterNumber":3,"parameterNumberName":"V-component_of_WINDS"},"data":[0,0,0,0,0,0,0,0,0,0,0,0,0,0,0,0,0,0,0,0,0,0,0,0,0,0,0,0,0,0,0,0,0,0,0,0,0,0,0,0,0,0,0,0,0,0,0,0,0,0,0,0,0,0,0,0,0,0,0.9932,0.9932,0,0.9928,0.9928,0.9928,0.993,0.993,0.993,0.993,0.9926,0.9925,0.9925,0,0,0,0,0,0,0,0,0,0,0,0,0,0.9939,0.9939,0.9932,0.9932,0.9932,0.9928,0.9928,0.9928,0.993,0.993,0.993,0.993,0.9926,0.9925,0.9925,0,0,0,0,0,0,0,0,0,0,0,0,0,0.9936,0.9939,0.9932,0.9932,0.9932,0.9928,0.9928,0.9928,0.993,0.993,0.993,0.993,0.9926,0.9925,0.9925,0.992,0,0,0.9924,0.9924,0,0,0,0,0,0,0,0,0.9936,0.9936,0.9932,0.9932,0.9932,0.993,0.9929,0.9926,0.993,0.9931,0.993,0.9931,0.9927,0.9926,0.9925,0.992,0.992,0.9924,0.9924,0.9924,0.9924,0,0,0,0,0,0,0,0.9936,0.9936,0.9931,0.9932,0.9932,0.9932,0.9932,0.9929,0.9928,0.9931,0.9931,0.9931,0.9927,0.9926,0.9925,0.992,0.9924,0.9924,0.9924,0.9923,0.991,0.991,0,0,0,0,0,0,0.9937,0.9936,0.9931,0.993,0.9935,0.9932,0.9932,0.9931,0.9928,0.9928,0.993,0.9931,0.9926,0.9926,0.9925,0.9919,0.9924,0.9923,0.9923,0.991,0.991,0.9909,0,0,0,0,0,0,0.9937,0.9936,0.9931,0.9933,0.9933,0.9932,0.993,0.993,0.9929,0.9928,0.9928,0.9929,0.9926,0.9926,0.9921,0.9919,0.9923,0.9923,0.991,0.991,0.991,0.9907,0,0,0,0,0,0,0.9937,0.9936,0.9935,0.9933,0.9932,0.9928,0.993,0.993,0.9929,0.9929,0.9927,0.9927,0.9926,0.9922,0.9921,0.9918,0.9923,0.991,0.991,0.991,0.9907,0.9906,0.9906,0,0,0,0,0,0.9937,0.9934,0.9935,0.9934,0.9931,0.9927,0.9927,0.9927,0.9929,0.9927,0.9926,0.9927,0.9919,0.9921,0.9921,0.9918,0.991,0.991,0.991,0.9907,0.9906,0.9906,0,0,0,0,0,0,0.9935,0.9934,0.9934,0.9931,0.9929,0.9928,0.9925,0.9926,0.9924,0.9924,0.9924,0.9924,0.9919,0.9918,0.9921,0.9913,0.9915,0.9914,0.9913,0.9913,0.9912,0.9912,0.9922,0,0,0,0,0,0.9934,0.9932,0.9931,0.9927,0.9927,0.9926,0.9925,0.9925,0.9923,0.9923,0.9921,0.9919,0.9917,0.9915,0.9912,0.9907,0.9906,0.9905,0.9904,0.9903,0.9903,0.9899,0.9899,0.9908,0.9908,0.9908,0,0,0.9931,0.9931,0.9929,0.9927,0.9926,0.9923,0.9926,0.9923,0.9921,0.9922,0.9918,0.9917,0.9915,0.991,0.9908,0.9909,0.99,0.9903,0.9903,0.9902,0.9899,0.9898,0.9897,0.9908,0.9908,0.9908,0,0,0.9926,0.9925,0.9922,0.9921,0.992,0.9919,0.9919,0.9917,0.9917,0.9913,0.9914,0.9911,0.9906,0.9904,0.9903,0.9897,0.9897,0.9896,0.9893,0.9889,0.9889,0.9888,0.9885,0.9884,0.9895,0.9895,0.9895,0,0.9923,0.992,0.9921,0.9918,0.9916,0.9918,0.9914,0.9913,0.9911,0.9909,0.9911,0.9905,0.9903,0.9898,0.9897,0.9895,0.9894,0.9896,0.9889,0.9888,0.9887,0.9885,0.9884,0.9895,0.9895,0.9895,0.9895,0,0.9916,0.9914,0.9912,0.9909,0.9908,0.9905,0.9905,0.9903,0.9903,0.9903,0.9898,0.9897,0.9894,0.9892,0.9893,0.9887,0.9888,0.9889,0.9891,0.9886,0.9884,0.9883,0.9895,0.9895,0.9895,0.9895,0,0,0.9909,0.9907,0.9906,0.9905,0.9904,0.9901,0.9898,0.9896,0.9894,0.9892,0.9889,0.9885,0.9886,0.9884,0.9884,0.9882,0.9876,0.9883,0.9883,0.9881,0.9869,0.9867,0.9866,0.9877,0.9876,0.9876,0.9869,0,0.9903,0.9898,0.9898,0.9893,0.989,0.9892,0.9889,0.9887,0.9887,0.9884,0.9883,0.988,0.9882,0.9881,0.9879,0.9877,0.9873,0.9878,0.9873,0.9873,0.9873,0.9865,0.9864,0.9857,0.9868,0.9868,0.9868,0,0.9895,0.9893,0.9888,0.9887,0.9885,0.9883,0.988,0.9878,0.9876,0.9876,0.9874,0.9874,0.987,0.9873,0.9868,0.9871,0.9869,0.9868,0.9867,0.9866,0.9869,0.9863,0.9855,0.9853,0.9866,0.9866,0.9866,0,0.989,0.9886,0.9882,0.9881,0.9879,0.9877,0.9877,0.9875,0.9873,0.9871,0.9869,0.9867,0.9865,0.9862,0.9862,0.9864,0.9856,0.9859,0.9855,0.9855,0.9853,0.9853,0.9843,0.9852,0.9852,0.9852,0.9852,0,0.9883,0.9879,0.9879,0.9877,0.9873,0.9874,0.9869,0.9869,0.9867,0.9864,0.9865,0.9862,0.9862,0.9859,0.9858,0.9853,0.9853,0.9852,0.9852,0.9851,0.9851,0.985,0.985,0.9852,0.9852,0.9852,0.9852,0,0.9875,0.9876,0.9871,0.987,0.987,0.9867,0.9866,0.9863,0.9863,0.9859,0.9858,0.9857,0.9853,0.9853,0.9848,0.9848,0.9842,0.9843,0.9843,0.9842,0.9838,0.9839,0.9827,0.9825,0.9836,0.9836,0.9836,0,0.9871,0.9868,0.9867,0.9865,0.9864,0.9861,0.986,0.986,0.9858,0.9855,0.9853,0.985,0.9847,0.9841,0.9839,0.9836,0.9836,0.9832,0.9835,0.9835,0.9835,0.9835,0.9834,0.9831,0.9831,0.9831,0.9831,0,0.9862,0.9862,0.986,0.9857,0.9855,0.9854,0.9852,0.985,0.985,0.9848,0.9844,0.9842,0.9838,0.9834,0.9831,0.9829,0.983,0.983,0.9829,0.9828,0.9828,0.9827,0.984,0.983,0.983,0.983,0.983,0.983,0.9855,0.9853,0.9851,0.9849,0.9848,0.9846,0.9843,0.9843,0.984,0.9836,0.9837,0.9833,0.983,0.9826,0.9824,0.9821,0.9822,0.982,0.982,0.9819,0.9818,0.9829,0.982,0.982,0.982,0.982,0.982,0,0.9846,0.9845,0.9843,0.984,0.9838,0.984,0.9838,0.9835,0.9832,0.983,0.9827,0.9823,0.9819,0.9818,0.9814,0.9811,0.9811,0.981,0.981,0.981,0.9818,0.9819,0.981,0.981,0.981,0.981,0.981,0.981,0.9841,0.9837,0.9837,0.9832,0.9831,0.9827,0.9826,0.9824,0.9822,0.9818,0.9815,0.9814,0.9812,0.9808,0.9805,0.9804,0.9802,0.9801,0.9801,0.9808,0.9809,0.981,0.9811,0.9801,0.9801,0.9792,0.9792,0.9792]}]]